Terminal Aerodrome Forecast
Issued by NWS Glasgow, MT

Home | Current Version | Previous Version | Text Only | Print | Product List | Glossary On
Versions: 1 2 3 4 5 6 7 8 9 10 11 12 13 14
000
FTUS45 KGGW 222300
TAFGGW
TAF
KGGW 222320Z 2300/2324 VRB05KT P6SM SCT080
     FM230300 10011KT P6SM BKN100
     FM231600 12016KT P6SM SCT100
     FM231900 13017G25KT P6SM SCT100=

USA.gov is the U.S. government's official web portal to all federal, state and local government web resources and services.